Location: Unspecified
(48.2082°N, 0.0000°E)
Time: 05:47:43
(UTC+00:00)

A-11 Canister half - Pass Details

Date: 24 June 2019
Orbit: 1514 x 1685 km, 47.2° (Epoch: 17 July)

Event Time Altitude Azimuth Distance (km) Brightness Sun altitude
Rises 16:55:48 0° 290° (WNW) 4,787 12.7 28.1°
Reaches altitude 10° 16:59:25 10° 281° (W) 3,773 12.8 27.5°
Maximum altitude 17:07:10 30° 225° (SW) 2,511 11.0 26.3°
Drops below altitude 10° 17:14:46 10° 170° (S) 3,677 10.9 25.0°
Sets 17:18:15 0° 159° (SSE) 4,647 11.3 24.4°
